This is the latest recevied weather packets stored in our database for station/object W6MAF. If no packets are shown the sender has not sent any weather packets the latest 10 day(s).
| Time | Temp. | Humidity | Pressure | Rain* | Wind** | Luminosity | Snow |
|---|---|---|---|---|---|---|---|
| 1777357090 | 5.56° C | 84% | - | 0 mm | 4.47 m/s, 235° | - | - |
| 1777356792 | 5.56° C | 83% | - | 0 mm | 4.02 m/s, 212° | - | - |
| 1777356494 | 5.56° C | 82% | - | 0 mm | 3.13 m/s, 214° | - | - |
| 1777356194 | 5.56° C | 81% | - | 0 mm | 4.47 m/s, 200° | - | - |
| 1777355896 | 5.56° C | 80% | - | 0 mm | 4.02 m/s, 240° | - | - |
| 1777355598 | 5.56° C | 79% | - | 0 mm | 4.02 m/s, 245° | - | - |
| 1777355301 | 5.56° C | 78% | - | 0 mm | 3.13 m/s, 238° | - | - |
| 1777355003 | 5.56° C | 78% | - | 0 mm | 3.13 m/s, 231° | - | - |
| 1777354705 | 6.11° C | 77% | - | 0 mm | 4.92 m/s, 239° | - | - |
| 1777354405 | 6.11° C | 76% | - | 0 mm | 4.47 m/s, 233° | - | - |
| 1777354107 | 6.11° C | 75% | - | 0 mm | 4.02 m/s, 256° | - | - |
| 1777353809 | 6.11° C | 74% | - | 0 mm | 4.92 m/s, 250° | - | - |
| 1777353512 | 6.11° C | 73% | - | 0 mm | 4.02 m/s, 255° | - | - |
| 1777353215 | 6.11° C | 73% | - | 0 mm | 4.02 m/s, 252° | - | - |
| 1777352916 | 6.11° C | 72% | - | 0 mm | 3.13 m/s, 236° | - | - |
| 1777352615 | 6.11° C | 70% | - | 0 mm | 3.13 m/s, 245° | - | - |
| 1777352318 | 6.67° C | 70% | - | 0 mm | 3.58 m/s, 235° | - | - |
| 1777352020 | 6.67° C | 69% | - | 0 mm | 3.58 m/s, 233° | - | - |
| 1777351804 | 6.67° C | 69% | - | 0 mm | 2.68 m/s, 239° | - | - |
| 1777351723 | 6.67° C | 69% | - | 0 mm | 2.68 m/s, 239° | - | - |
| 1777351425 | 6.67° C | 69% | - | 0 mm | 4.47 m/s, 232° | - | - |
| 1777351127 | 6.67° C | 67% | - | 0 mm | 5.36 m/s, 232° | - | - |
| 1777350826 | 6.67° C | 67% | - | 0 mm | 4.02 m/s, 224° | - | - |
| 1777350529 | 6.67° C | 67% | - | 0 mm | 4.02 m/s, 256° | - | - |
| 1777350231 | 6.67° C | 66% | - | 0 mm | 4.02 m/s, 226° | - | - |
* Rain latest hour (hover to see other rain measurements)
** Current wind speed in m/s (hover to see current wind gust speed)